[[{"header":{"parameterUnit":"m.s-1","parameterCategory":1,"la1":30.2991,"la2":30.254,"lo1":-89.0895,"lo2":-89.0444,"dy":0.0017,"dx":0.0017,"nx":28,"ny":28,"refTime":"2024-11-24T03:00:00:Z","depth":0,"parameterNumber":2,"parameterNumberName":"U-component_of_WINDS"},"data":[0,0,0,0,0,0,0,0,0,0,0,0,0,0,0,0,0,0,0,0,0,0,0,0,0,0,0,0,0,0,0,0,0,0,0,0,0,0,0,0,0,0,0,0,0,0,0,0,0,0,0,0,0,0,0,0,0,0,0.4955,0.4955,0,0.4933,0.4933,0.4933,0.4911,0.4911,0.4911,0.4911,0.4886,0.4886,0.4886,0,0,0,0,0,0,0,0,0,0,0,0,0,0.4978,0.4978,0.4955,0.4955,0.4955,0.4933,0.4933,0.4933,0.4911,0.4911,0.4911,0.491,0.4887,0.4886,0.4886,0,0,0,0,0,0,0,0,0,0,0,0,0,0.4963,0.4978,0.4955,0.4942,0.494,0.4933,0.4933,0.4932,0.4911,0.4911,0.4911,0.491,0.4887,0.4886,0.4886,0.489,0,0,0.4884,0.4884,0,0,0,0,0,0,0,0,0.4964,0.4963,0.4944,0.4943,0.4941,0.4925,0.4932,0.4918,0.4912,0.4922,0.4911,0.491,0.4899,0.4898,0.4894,0.4889,0.4888,0.4884,0.4883,0.4883,0.4883,0,0,0,0,0,0,0,0.4965,0.4963,0.4947,0.4944,0.4942,0.4936,0.4934,0.4929,0.4913,0.4921,0.492,0.4917,0.4898,0.4895,0.4894,0.4888,0.4884,0.4883,0.4883,0.4883,0.4884,0.4884,0,0,0,0,0,0,0.4969,0.4965,0.4947,0.4946,0.4952,0.4936,0.4933,0.493,0.4913,0.491,0.4918,0.4917,0.4896,0.4894,0.4893,0.4896,0.4883,0.4883,0.4882,0.4884,0.4884,0.4885,0,0,0,0,0,0,0.4969,0.4967,0.4948,0.4955,0.4952,0.4936,0.4933,0.493,0.4927,0.4911,0.4908,0.4917,0.4896,0.4894,0.4891,0.4895,0.4882,0.4882,0.4883,0.4884,0.4884,0.4904,0,0,0,0,0,0,0.497,0.4968,0.4969,0.4955,0.4952,0.4947,0.4933,0.493,0.4926,0.4924,0.4909,0.4907,0.4895,0.4892,0.489,0.4894,0.4881,0.4883,0.4884,0.4884,0.4903,0.4905,0.4907,0,0,0,0,0,0.4971,0.4976,0.497,0.4968,0.4954,0.4947,0.4945,0.4933,0.4926,0.4928,0.4917,0.4907,0.4895,0.4892,0.489,0.4894,0.4882,0.4883,0.4884,0.4902,0.4904,0.4907,0,0,0,0,0,0,0.4991,0.4973,0.4967,0.4967,0.4959,0.4944,0.4945,0.4936,0.4929,0.4928,0.4912,0.4909,0.4908,0.4901,0.4897,0.4897,0.4887,0.4888,0.4901,0.4904,0.4906,0.4907,0.4881,0,0,0,0,0,0.4995,0.4992,0.4977,0.4978,0.4975,0.4961,0.4958,0.4949,0.4939,0.4936,0.4925,0.4916,0.4911,0.4907,0.4901,0.4902,0.4898,0.4903,0.4906,0.4907,0.4908,0.4907,0.4909,0.4887,0.4887,0.4887,0,0,0.5004,0.4994,0.4993,0.4982,0.4975,0.4971,0.4958,0.4955,0.4952,0.4935,0.4932,0.4924,0.4913,0.4912,0.4911,0.4906,0.4913,0.4909,0.491,0.4909,0.4908,0.491,0.4912,0.4888,0.4888,0.4888,0,0,0.5018,0.5011,0.5011,0.5004,0.4993,0.4984,0.4984,0.4971,0.4965,0.4962,0.4949,0.4945,0.4935,0.4928,0.4923,0.4935,0.4925,0.4933,0.4944,0.4944,0.4945,0.4947,0.495,0.4952,0.4934,0.4934,0.4934,0,0.503,0.5025,0.5012,0.501,0.5005,0.4991,0.499,0.4984,0.4972,0.4969,0.4963,0.4951,0.4943,0.494,0.4943,0.4939,0.4938,0.4934,0.4946,0.4947,0.4949,0.4952,0.4953,0.4935,0.4935,0.4935,0.4935,0,0.504,0.5037,0.5038,0.5027,0.5023,0.5021,0.5008,0.5005,0.4997,0.4988,0.4985,0.4974,0.4965,0.4964,0.4956,0.496,0.4957,0.4949,0.4939,0.4952,0.4954,0.4956,0.4937,0.4936,0.4936,0.4936,0,0,0.5065,0.5047,0.5048,0.5043,0.503,0.5027,0.5025,0.5017,0.5014,0.5006,0.5004,0.4996,0.4989,0.4984,0.4974,0.4974,0.4983,0.4966,0.4966,0.4969,0.4986,0.4991,0.4993,0.4977,0.4977,0.4978,0.4987,0,0.5076,0.5072,0.5061,0.506,0.5056,0.5043,0.5041,0.5033,0.5025,0.502,0.5011,0.5005,0.4997,0.4993,0.4993,0.4982,0.4986,0.4982,0.4974,0.4974,0.4976,0.4995,0.5,0.5009,0.4988,0.4988,0.4988,0,0.5089,0.5082,0.5081,0.5068,0.5066,0.5065,0.5057,0.5053,0.5043,0.5037,0.5031,0.5021,0.5018,0.5009,0.5004,0.5001,0.4998,0.4992,0.4992,0.499,0.4981,0.4992,0.5012,0.5013,0.499,0.499,0.499,0,0.5106,0.5097,0.5095,0.5091,0.5076,0.5075,0.5069,0.5059,0.5055,0.5048,0.5045,0.5037,0.5033,0.5027,0.5015,0.501,0.5011,0.5002,0.5005,0.5006,0.5005,0.5005,0.5024,0.5005,0.5004,0.5004,0.5004,0,0.5119,0.5119,0.5102,0.5101,0.51,0.5087,0.5087,0.5079,0.5071,0.5067,0.5055,0.5052,0.5037,0.5032,0.5023,0.502,0.5018,0.5012,0.501,0.5013,0.5013,0.5009,0.5008,0.5005,0.5005,0.5005,0.5005,0,0.5137,0.5127,0.5123,0.511,0.5107,0.5107,0.5095,0.5093,0.5085,0.5081,0.5079,0.5065,0.5059,0.5047,0.5037,0.5031,0.5029,0.5025,0.5033,0.5031,0.5035,0.5034,0.505,0.5052,0.5033,0.5033,0.5033,0,0.5146,0.5145,0.5132,0.5129,0.5124,0.5119,0.5115,0.5103,0.5099,0.5088,0.5087,0.508,0.5074,0.5064,0.5053,0.5045,0.5041,0.5047,0.5039,0.5042,0.5039,0.5039,0.5039,0.5048,0.5048,0.5049,0.5049,0,0.5162,0.5157,0.5151,0.5144,0.514,0.5133,0.5126,0.5125,0.511,0.5107,0.51,0.5095,0.5086,0.5078,0.5069,0.5062,0.5053,0.5052,0.5052,0.5054,0.5058,0.5055,0.5036,0.5051,0.5051,0.5051,0.505,0.505,0.5175,0.5174,0.5164,0.5159,0.5152,0.5146,0.5144,0.5135,0.513,0.5121,0.5114,0.5108,0.5098,0.5085,0.5079,0.5074,0.5069,0.507,0.507,0.507,0.5071,0.506,0.5072,0.5072,0.5072,0.5072,0.5072,0,0.519,0.5183,0.5178,0.5169,0.5165,0.5157,0.5149,0.5146,0.5141,0.5133,0.5127,0.5119,0.5113,0.5101,0.5093,0.5091,0.5087,0.509,0.5089,0.5087,0.5076,0.5076,0.5093,0.5093,0.5093,0.5093,0.5093,0.5093,0.5197,0.5194,0.5188,0.5182,0.5175,0.517,0.5165,0.5159,0.5153,0.5145,0.514,0.5133,0.5123,0.5115,0.5108,0.5105,0.5102,0.5106,0.5101,0.509,0.5088,0.5086,0.5086,0.5106,0.5106,0.5113,0.5113,0.5113]},{"header":{"parameterUnit":"m.s-1","parameterCategory":1,"la1":30.2991,"la2":30.254,"lo1":-89.0895,"lo2":-89.0444,"dy":0.0017,"dx":0.0017,"nx":28,"ny":28,"refTime":"2024-11-24T03:00:00:Z","depth":0,"parameterNumber":3,"parameterNumberName":"V-component_of_WINDS"},"data":[0,0,0,0,0,0,0,0,0,0,0,0,0,0,0,0,0,0,0,0,0,0,0,0,0,0,0,0,0,0,0,0,0,0,0,0,0,0,0,0,0,0,0,0,0,0,0,0,0,0,0,0,0,0,0,0,0,0,-0.125,-0.1251,0,-0.1309,-0.131,-0.131,-0.137,-0.1371,-0.1372,-0.1373,-0.1433,-0.1433,-0.1434,0,0,0,0,0,0,0,0,0,0,0,0,0,-0.119,-0.1191,-0.125,-0.1251,-0.1251,-0.1309,-0.131,-0.131,-0.137,-0.1371,-0.1372,-0.1373,-0.1432,-0.1433,-0.1434,0,0,0,0,0,0,0,0,0,0,0,0,0,-0.1229,-0.1191,-0.125,-0.1288,-0.1292,-0.1309,-0.131,-0.1311,-0.137,-0.1371,-0.1372,-0.1373,-0.1432,-0.1433,-0.1435,-0.1418,0,0,-0.1438,-0.1439,0,0,0,0,0,0,0,0,-0.1227,-0.1231,-0.1282,-0.1286,-0.129,-0.1333,-0.1311,-0.1347,-0.1369,-0.134,-0.1373,-0.1374,-0.1399,-0.1403,-0.1411,-0.1421,-0.1423,-0.1439,-0.1439,-0.144,-0.144,0,0,0,0,0,0,0,-0.1224,-0.1229,-0.1273,-0.1282,-0.1287,-0.1303,-0.1309,-0.1318,-0.1362,-0.1343,-0.1347,-0.1354,-0.1401,-0.141,-0.1413,-0.1424,-0.1438,-0.144,-0.144,-0.1441,-0.1425,-0.1423,0,0,0,0,0,0,-0.1215,-0.1226,-0.1271,-0.1275,-0.1261,-0.1303,-0.131,-0.1318,-0.1362,-0.137,-0.1352,-0.1356,-0.1407,-0.1411,-0.1415,-0.1399,-0.144,-0.1441,-0.1442,-0.1426,-0.1424,-0.1423,0,0,0,0,0,0,-0.1214,-0.1219,-0.1269,-0.1252,-0.1259,-0.1302,-0.1311,-0.1319,-0.1327,-0.1369,-0.1377,-0.1353,-0.1408,-0.1414,-0.1417,-0.1402,-0.1442,-0.1443,-0.1427,-0.1425,-0.1424,-0.1367,0,0,0,0,0,0,-0.1212,-0.1218,-0.1212,-0.1251,-0.126,-0.1269,-0.131,-0.1319,-0.1329,-0.1335,-0.1372,-0.1379,-0.1409,-0.1415,-0.1418,-0.1405,-0.1444,-0.1429,-0.1426,-0.1424,-0.137,-0.1363,-0.1357,0,0,0,0,0,-0.1209,-0.1193,-0.1211,-0.1216,-0.1253,-0.1268,-0.1274,-0.1309,-0.1328,-0.1322,-0.135,-0.1378,-0.1403,-0.1415,-0.1419,-0.1406,-0.143,-0.1427,-0.1424,-0.1373,-0.1365,-0.1358,0,0,0,0,0,0,-0.115,-0.1199,-0.1219,-0.1215,-0.1237,-0.1279,-0.1272,-0.1299,-0.1315,-0.132,-0.1363,-0.137,-0.1369,-0.1388,-0.14,-0.1393,-0.1421,-0.1419,-0.138,-0.1373,-0.1366,-0.1362,-0.1445,0,0,0,0,0,-0.1137,-0.1145,-0.1187,-0.118,-0.119,-0.1229,-0.1237,-0.1262,-0.1287,-0.1296,-0.1323,-0.1346,-0.1359,-0.1367,-0.1382,-0.1374,-0.1383,-0.1367,-0.136,-0.1355,-0.1352,-0.135,-0.1344,-0.1414,-0.1414,-0.1414,0,0,-0.1109,-0.1137,-0.1139,-0.1168,-0.1188,-0.1196,-0.1236,-0.1242,-0.1249,-0.1297,-0.1302,-0.1323,-0.1351,-0.1349,-0.135,-0.1365,-0.1335,-0.1351,-0.1347,-0.1347,-0.1347,-0.134,-0.1334,-0.1412,-0.1413,-0.1413,0,0,-0.1062,-0.1084,-0.108,-0.1099,-0.1129,-0.1156,-0.1155,-0.1193,-0.1208,-0.1214,-0.1251,-0.1259,-0.1281,-0.13,-0.1312,-0.1274,-0.1301,-0.1277,-0.1244,-0.1241,-0.1236,-0.1231,-0.1218,-0.1212,-0.1275,-0.1275,-0.1275,0,-0.1023,-0.1036,-0.1075,-0.1079,-0.1091,-0.1136,-0.1133,-0.115,-0.1183,-0.119,-0.1207,-0.1236,-0.1258,-0.1261,-0.1252,-0.126,-0.1261,-0.1273,-0.1233,-0.1229,-0.1225,-0.1213,-0.1208,-0.1272,-0.1272,-0.1273,-0.1273,0,-0.0988,-0.0996,-0.099,-0.1021,-0.1033,-0.1033,-0.1072,-0.1079,-0.1103,-0.1128,-0.1134,-0.1163,-0.1184,-0.1187,-0.121,-0.1194,-0.1202,-0.1225,-0.1255,-0.1215,-0.1204,-0.12,-0.1267,-0.1269,-0.127,-0.127,0,0,-0.0904,-0.0958,-0.0955,-0.097,-0.1007,-0.1014,-0.1017,-0.1038,-0.1043,-0.1065,-0.1069,-0.1087,-0.1109,-0.1123,-0.1149,-0.1147,-0.1116,-0.1171,-0.1173,-0.116,-0.1099,-0.1081,-0.1075,-0.1134,-0.1133,-0.1133,-0.1097,0,-0.0864,-0.0872,-0.0907,-0.0904,-0.0913,-0.0956,-0.0959,-0.0982,-0.1005,-0.1017,-0.1043,-0.1055,-0.1083,-0.1092,-0.1092,-0.1119,-0.1104,-0.1122,-0.1138,-0.1138,-0.1129,-0.107,-0.105,-0.1015,-0.1093,-0.1092,-0.1092,0,-0.0817,-0.0836,-0.0835,-0.0872,-0.0877,-0.0879,-0.0902,-0.0912,-0.0939,-0.0957,-0.0973,-0.1003,-0.1009,-0.1036,-0.1045,-0.1057,-0.1066,-0.1081,-0.108,-0.1083,-0.1112,-0.107,-0.1005,-0.0999,-0.1085,-0.1086,-0.1086,0,-0.0757,-0.0782,-0.0785,-0.0796,-0.084,-0.0841,-0.0859,-0.0888,-0.0898,-0.0918,-0.0926,-0.0946,-0.0957,-0.0972,-0.1007,-0.1024,-0.1013,-0.1043,-0.1027,-0.1026,-0.1023,-0.1022,-0.0957,-0.1028,-0.1028,-0.1028,-0.1029,0,-0.0708,-0.0705,-0.0758,-0.076,-0.0758,-0.0799,-0.0797,-0.0819,-0.0845,-0.0852,-0.089,-0.0896,-0.0942,-0.0953,-0.098,-0.0984,-0.0989,-0.1003,-0.1011,-0.1,-0.0998,-0.1006,-0.1009,-0.1027,-0.1027,-0.1028,-0.1028,0,-0.0639,-0.0675,-0.0681,-0.0722,-0.0733,-0.073,-0.0766,-0.0769,-0.0795,-0.0804,-0.0808,-0.0849,-0.0865,-0.0901,-0.0926,-0.0945,-0.0941,-0.0954,-0.0932,-0.0936,-0.0919,-0.092,-0.0857,-0.0851,-0.0925,-0.0924,-0.0923,0,-0.0606,-0.0605,-0.0646,-0.0654,-0.0671,-0.0682,-0.0694,-0.0734,-0.0745,-0.0777,-0.0776,-0.0795,-0.0811,-0.0834,-0.0866,-0.0886,-0.09,-0.0876,-0.0903,-0.0892,-0.09,-0.0899,-0.09,-0.087,-0.0869,-0.0868,-0.0868,0,-0.0542,-0.056,-0.0575,-0.0596,-0.0609,-0.0628,-0.0649,-0.0653,-0.0698,-0.0708,-0.0724,-0.0737,-0.0763,-0.0781,-0.0806,-0.0825,-0.0854,-0.0859,-0.0857,-0.0845,-0.0832,-0.084,-0.0916,-0.086,-0.0861,-0.0862,-0.0862,-0.0862,-0.049,-0.0492,-0.0522,-0.0537,-0.0558,-0.0576,-0.0582,-0.0609,-0.0623,-0.0648,-0.0671,-0.0685,-0.0713,-0.0749,-0.0767,-0.0779,-0.0794,-0.079,-0.0789,-0.0787,-0.0783,-0.0831,-0.0783,-0.0784,-0.0784,-0.0784,-0.0784,0,-0.0429,-0.045,-0.0465,-0.0493,-0.0505,-0.0532,-0.0557,-0.0565,-0.0577,-0.0602,-0.0618,-0.0637,-0.0654,-0.0689,-0.071,-0.0712,-0.0726,-0.0717,-0.0717,-0.0721,-0.0768,-0.0768,-0.0705,-0.0705,-0.0705,-0.0705,-0.0705,-0.0705,-0.0398,-0.0403,-0.0424,-0.0439,-0.0461,-0.0475,-0.0487,-0.0505,-0.0524,-0.0544,-0.0559,-0.0581,-0.061,-0.0633,-0.0651,-0.0661,-0.0667,-0.0653,-0.0667,-0.071,-0.0717,-0.0725,-0.0725,-0.0654,-0.0654,-0.0619,-0.0618,-0.0618]}]]